2 Line ISS Keps 9-22
22 Sep
2007
22 Sep
'07
10:28 a.m.
ISS 1 25544U 98067A 07265.32081757 .00008970 00000-0 57998-4 0 237 2 25544 051.6355 322.6935 0010077 035.9083 055.6656 15.76955387506101
6301
Age (days ago)
6301
Last active (days ago)
0 comments
1 participants
participants (1)
-
Dave Larsen PhD